Terminal Aerodrome Forecast
Issued by NWS Milwaukee/Sullivan, WI

Home | Current Version | Previous Version | Text Only | Print | Product List | Glossary On
Versions: 1 2 3 4 5 6 7 8 9 10 11 12 13 14 15 16 17 18 19 20 21 22 23 24 25 26 27 28 29 30 31 32 33 34 35 36 37 38 39 40 41 42 43 44 45 46 47 48 49 50
000
FTUS43 KMKX 261134
TAFMKE
TAF
KMKE 261134Z 2612/2718 VRB03KT P6SM SCT022 OVC080
     FM261700 18007KT P6SM OVC050
     FM262000 16008KT 3SM -SN OVC035
      TEMPO 2622/2702 2SM -SN OVC030
     FM270300 16005KT 3SM -SN OVC015
     FM270700 VRB05KT 3SM BR OVC015=

USA.gov is the U.S. government's official web portal to all federal, state and local government web resources and services.